ProjectID,Date,Electric Generation,Electric Utility Import,Facility Electric Load
,YYYY-MM-DD,kW,kW,kW
1823,2020-01-10,0.0,57.19347826086957,57.19347826086957
1823,2020-01-11,0.0,54.07220833333333,54.07220833333333
1823,2020-01-12,0.0,53.59866666666667,53.59866666666667
1823,2020-01-13,0.0,53.23820833333334,53.23820833333334
1823,2020-01-14,0.0,52.254875,52.254875
1823,2020-01-15,0.0,70.52533333333334,70.52533333333334
1823,2020-01-16,0.0,52.75841666666667,52.75841666666667
1823,2020-01-17,0.0,57.75899999999999,57.75899999999999
1823,2020-01-18,0.0,63.13616666666667,63.13616666666667
1823,2020-01-19,0.0,60.362541666666665,60.362541666666665
1823,2020-01-20,0.0,60.80279166666667,60.80279166666667
1823,2020-01-21,0.0,54.10070833333333,54.10070833333333
1823,2020-01-22,0.0,51.91945833333333,51.91945833333333
1823,2020-01-23,0.0,46.99525,46.99525
1823,2020-01-24,0.0,40.94583333333333,40.94583333333333
1823,2020-01-25,0.0,44.99308333333334,44.99308333333334
1823,2020-01-26,0.0,42.858958333333334,42.858958333333334
1823,2020-01-27,0.0,42.24516666666667,42.24516666666667
1823,2020-01-28,0.0,42.31741666666667,42.31741666666667
1823,2020-01-29,0.0,43.41591666666667,43.41591666666667
1823,2020-01-30,0.0,41.888875,41.888875
1823,2020-01-31,0.0,46.63741666666667,46.63741666666667
1823,2020-02-01,0.0,42.75204166666666,42.75204166666666
1823,2020-02-02,0.0,45.47779166666667,45.47779166666667
1823,2020-02-03,0.0,41.75625,41.75625
1823,2020-02-04,0.0,40.30975,40.30975
1823,2020-02-05,0.0,43.01945833333334,43.01945833333334
1823,2020-02-06,0.0,43.51458333333333,43.51458333333333
1823,2020-02-07,0.0,81.63191666666667,81.63191666666667
1823,2020-02-08,0.0,147.10491666666667,147.10491666666667
1823,2020-02-09,0.0,151.08954166666666,151.08954166666666
1823,2020-02-10,0.0,84.09183333333333,84.09183333333333
1823,2020-02-11,0.0,41.84441666666667,41.84441666666667
1823,2020-02-12,0.0,43.081875,43.081875
1823,2020-02-13,0.0,43.079125,43.079125
1823,2020-02-14,0.0,43.48679166666667,43.48679166666667
1823,2020-02-15,0.0,44.304125,44.304125
1823,2020-02-16,0.0,43.488875,43.488875
1823,2020-02-17,0.0,41.247166666666665,41.247166666666665
1823,2020-02-18,0.0,42.2555,42.2555
1823,2020-02-19,0.0,40.83745833333334,40.83745833333334
1823,2020-02-20,0.0,42.70554166666667,42.70554166666667
1823,2020-02-21,0.0,44.828541666666666,44.828541666666666
1823,2020-02-22,0.0,41.84791666666667,41.84791666666667
1823,2020-02-23,0.0,41.167375,41.167375
1823,2020-02-24,0.0,41.85216666666667,41.85216666666667
1823,2020-02-25,0.0,43.29504166666666,43.29504166666666
1823,2020-02-26,0.0,42.801375,42.801375
1823,2020-02-27,0.0,45.57841666666667,45.57841666666667
1823,2020-02-28,0.0,45.52979166666666,45.52979166666666
1823,2020-02-29,0.0,47.470958333333336,47.470958333333336
1823,2020-03-01,0.0,45.103541666666665,45.103541666666665
1823,2020-03-02,0.0,40.54516666666667,40.54516666666667
1823,2020-03-03,0.0,42.230583333333335,42.230583333333335
1823,2020-03-04,0.0,39.840916666666665,39.840916666666665
1823,2020-03-05,0.0,40.927125,40.927125
1823,2020-03-06,0.0,42.99025,42.99025
1823,2020-03-07,0.0,41.168124999999996,41.168124999999996
1823,2020-03-08,0.0,115.70558333333334,115.70558333333334
1823,2020-03-09,0.0,82.29545833333333,82.29545833333333
1823,2020-03-10,0.0,41.086,41.086
1823,2020-03-11,0.0,39.91879166666667,39.91879166666667
1823,2020-03-12,0.0,40.684000000000005,40.684000000000005
1823,2020-03-13,0.0,37.510416666666664,37.510416666666664
1823,2020-03-14,0.0,40.18058333333333,40.18058333333333
1823,2020-03-15,0.0,41.77708333333333,41.77708333333333
1823,2020-03-16,0.0,40.98129166666667,40.98129166666667
1823,2020-03-17,0.0,42.411791666666666,42.411791666666666
1823,2020-03-18,0.0,41.402791666666666,41.402791666666666
1823,2020-03-19,0.0,51.706916666666665,51.706916666666665
1823,2020-03-20,0.0,39.88616666666667,39.88616666666667
1823,2020-03-21,0.0,43.286791666666666,43.286791666666666
1823,2020-03-22,0.0,41.536791666666666,41.536791666666666
1823,2020-03-23,0.0,50.60341666666667,50.60341666666667
1823,2020-03-24,0.0,40.082,40.082
1823,2020-03-25,0.0,44.151375,44.151375
1823,2020-03-26,0.0,39.56254166666667,39.56254166666667
1823,2020-03-27,0.0,39.347208333333334,39.347208333333334
1823,2020-03-28,0.0,46.00216666666666,46.00216666666666
1823,2020-03-29,0.0,47.284124999999996,47.284124999999996
1823,2020-03-30,0.0,43.93120833333333,43.93120833333333
1823,2020-03-31,0.0,42.565999999999995,42.565999999999995
1823,2020-04-01,0.0,43.365916666666664,43.365916666666664
1823,2020-04-02,0.0,43.322916666666664,43.322916666666664
1823,2020-04-03,0.0,44.43883333333333,44.43883333333333
1823,2020-04-04,0.0,41.35766666666667,41.35766666666667
1823,2020-04-05,0.0,42.771458333333335,42.771458333333335
1823,2020-04-06,0.0,39.69241666666667,39.69241666666667
1823,2020-04-07,0.0,42.85279166666667,42.85279166666667
1823,2020-04-08,0.0,40.16525,40.16525
1823,2020-04-09,0.0,44.84104166666666,44.84104166666666
1823,2020-04-10,0.0,48.244375,48.244375
1823,2020-04-11,0.0,41.5875,41.5875
1823,2020-04-12,0.0,40.083333333333336,40.083333333333336
1823,2020-04-13,0.0,48.90420833333334,48.90420833333334
1823,2020-04-14,0.0,41.573625,41.573625
1823,2020-04-15,0.0,51.352125,51.352125
1823,2020-04-16,0.0,45.18391666666667,45.18391666666667
1823,2020-04-17,0.0,145.82500000000002,145.82500000000002
1823,2020-04-18,0.0,153.75975,153.75975
1823,2020-04-19,0.0,145.06325,145.06325
1823,2020-04-20,0.0,145.08962499999998,145.08962499999998
1823,2020-04-21,0.0,73.22295833333334,73.22295833333334
1823,2020-04-22,0.0,43.8195,43.8195
1823,2020-04-23,0.0,43.96120833333333,43.96120833333333
1823,2020-04-24,0.0,46.47016666666667,46.47016666666667
1823,2020-04-25,0.0,39.75970833333333,39.75970833333333
1823,2020-04-26,0.0,46.564625,46.564625
1823,2020-04-27,0.0,44.745125,44.745125
1823,2020-04-28,0.0,38.429875,38.429875
1823,2020-04-29,0.0,43.32425,43.32425
1823,2020-04-30,0.0,43.636125,43.636125
1823,2020-05-01,0.0,55.00566666666666,55.00566666666666
1823,2020-05-02,0.0,36.93054166666666,36.93054166666666
1823,2020-05-03,0.0,39.55825,39.55825
1823,2020-05-04,0.0,37.054125,37.054125
1823,2020-05-05,0.0,108.32554166666667,108.32554166666667
1823,2020-05-06,0.0,77.68908333333333,77.68908333333333
1823,2020-05-07,0.0,40.87233333333334,40.87233333333334
1823,2020-05-08,0.0,44.92783333333333,44.92783333333333
1823,2020-05-09,0.0,43.536791666666666,43.536791666666666
1823,2020-05-10,0.0,41.20695833333333,41.20695833333333
1823,2020-05-11,0.0,44.097833333333334,44.097833333333334
1823,2020-05-12,0.0,41.78058333333333,41.78058333333333
1823,2020-05-13,0.0,41.61120833333333,41.61120833333333
1823,2020-05-14,0.0,41.581291666666665,41.581291666666665
1823,2020-05-15,0.0,45.243791666666674,45.243791666666674
1823,2020-05-16,0.0,43.53541666666666,43.53541666666666
1823,2020-05-17,0.0,40.374375,40.374375
1823,2020-05-18,0.0,40.38195833333334,40.38195833333334
1823,2020-05-19,0.0,40.73529166666667,40.73529166666667
1823,2020-05-20,0.0,44.20208333333333,44.20208333333333
1823,2020-05-21,0.0,132.68812499999999,132.68812499999999
1823,2020-05-22,0.0,65.682,65.682
1823,2020-05-23,0.0,40.320791666666665,40.320791666666665
1823,2020-05-24,0.0,38.785375,38.785375
1823,2020-05-25,0.0,39.764541666666666,39.764541666666666
1823,2020-05-26,0.0,43.47774999999999,43.47774999999999
1823,2020-05-27,0.0,46.860375,46.860375
1823,2020-05-28,0.0,56.09645833333334,56.09645833333334
1823,2020-05-29,0.0,72.65208333333334,72.65208333333334
1823,2020-05-30,0.0,65.16945833333334,65.16945833333334
1823,2020-05-31,0.0,44.209,44.209
1823,2020-06-01,0.0,41.44858333333333,41.44858333333333
1823,2020-06-02,0.0,43.481249999999996,43.481249999999996
1823,2020-06-03,0.0,74.90141666666666,74.90141666666666
1823,2020-06-04,0.0,106.42775,106.42775
1823,2020-06-05,0.0,125.82216666666666,125.82216666666666
1823,2020-06-06,0.0,158.87283333333332,158.87283333333332
1823,2020-06-07,0.0,78.77779166666666,78.77779166666666
1823,2020-06-08,0.0,70.240375,70.240375
1823,2020-06-09,0.0,119.92920833333334,119.92920833333334
1823,2020-06-10,0.0,82.02566666666667,82.02566666666667
1823,2020-06-11,0.0,96.61033333333334,96.61033333333334
1823,2020-06-12,0.0,126.4535,126.4535
1823,2020-06-13,0.0,71.70416666666667,71.70416666666667
1823,2020-06-14,0.0,53.306291666666674,53.306291666666674
1823,2020-06-15,0.0,57.44720833333333,57.44720833333333
1823,2020-06-16,0.0,60.972874999999995,60.972874999999995
1823,2020-06-17,0.0,71.45841666666666,71.45841666666666
1823,2020-06-18,0.0,100.96941666666667,100.96941666666667
1823,2020-06-19,0.0,117.56308333333334,117.56308333333334
1823,2020-06-20,0.0,155.03183333333334,155.03183333333334
1823,2020-06-21,0.0,182.48533333333333,182.48533333333333
1823,2020-06-22,0.0,223.19025,223.19025
1823,2020-06-23,0.0,228.77854166666668,228.77854166666668
1823,2020-06-24,0.0,215.75208333333333,215.75208333333333
1823,2020-06-25,0.0,176.88325,176.88325
1823,2020-06-26,0.0,180.09849999999997,180.09849999999997
1823,2020-06-27,0.0,192.31379166666667,192.31379166666667
1823,2020-06-28,0.0,225.77295833333335,225.77295833333335
1823,2020-06-29,0.0,207.511125,207.511125
1823,2020-06-30,0.0,178.87008333333333,178.87008333333333
1823,2020-07-01,0.0,174.99091666666666,174.99091666666666
1823,2020-07-02,0.0,201.85904166666668,201.85904166666668
1823,2020-07-03,0.0,237.74658333333332,237.74658333333332
1823,2020-07-04,0.0,176.82925,176.82925
1823,2020-07-05,0.0,225.30895833333332,225.30895833333332
1823,2020-07-06,0.0,248.72645833333334,248.72645833333334
1823,2020-07-07,0.0,203.02016666666668,203.02016666666668
1823,2020-07-08,0.0,246.7535,246.7535
1823,2020-07-09,0.0,262.809,262.809
1823,2020-07-10,0.0,221.33474999999999,221.33474999999999
1823,2020-07-11,0.0,222.00966666666667,222.00966666666667
1823,2020-07-12,0.0,225.51591666666664,225.51591666666664
1823,2020-07-13,0.0,249.47704166666665,249.47704166666665
1823,2020-07-14,0.0,226.91245833333335,226.91245833333335
1823,2020-07-15,0.0,187.668125,187.668125
1823,2020-07-16,0.0,133.18129166666668,133.18129166666668
1823,2020-07-17,0.0,163.00825,163.00825
1823,2020-07-18,0.0,233.42645833333333,233.42645833333333
1823,2020-07-19,0.0,301.27570833333334,301.27570833333334
1823,2020-07-20,0.0,369.10058333333336,369.10058333333336
1823,2020-07-21,0.0,366.64574999999996,366.64574999999996
1823,2020-07-22,0.0,407.61674999999997,407.61674999999997
1823,2020-07-23,0.0,306.12916666666666,306.12916666666666
1823,2020-07-24,0.0,282.4014583333333,282.4014583333333
1823,2020-07-25,0.0,261.8818333333333,261.8818333333333
1823,2020-07-26,0.0,366.9839583333333,366.9839583333333
1823,2020-07-27,0.0,237.21054166666667,237.21054166666667
1823,2020-07-28,0.0,0.0,0.0
1823,2020-07-29,0.0,191.99562500000002,191.99562500000002
1823,2020-07-30,0.0,412.2187916666667,412.2187916666667
1823,2020-07-31,0.0,233.05691666666667,233.05691666666667
1823,2020-08-01,0.0,246.58337500000002,246.58337500000002
1823,2020-08-02,0.0,300.5950833333333,300.5950833333333
1823,2020-08-03,0.0,303.210375,303.210375
1823,2020-08-04,0.0,236.60829166666667,236.60829166666667
1823,2020-08-05,0.0,251.30283333333333,251.30283333333333
1823,2020-08-06,0.0,208.35070833333336,208.35070833333336
1823,2020-08-07,0.0,171.181875,171.181875
1823,2020-08-08,0.0,187.4813333333333,187.4813333333333
1823,2020-08-09,0.0,237.86254166666666,237.86254166666666
1823,2020-08-10,0.0,296.62225,296.62225
1823,2020-08-11,0.0,317.93058333333335,317.93058333333335
1823,2020-08-12,0.0,300.0835,300.0835
1823,2020-08-13,0.0,238.16037500000002,238.16037500000002
1823,2020-08-14,0.0,227.16320833333336,227.16320833333336
1823,2020-08-15,0.0,180.43404166666667,180.43404166666667
1823,2020-08-16,0.0,110.17154166666667,110.17154166666667
1823,2020-08-17,0.0,114.55008333333335,114.55008333333335
1823,2020-08-18,0.0,141.83191666666667,141.83191666666667
1823,2020-08-19,0.0,134.49370833333333,134.49370833333333
1823,2020-08-20,0.0,122.248625,122.248625
1823,2020-08-21,0.0,161.11454166666667,161.11454166666667
1823,2020-08-22,0.0,228.11454166666667,228.11454166666667
1823,2020-08-23,0.0,248.38958333333335,248.38958333333335
1823,2020-08-24,0.0,280.33258333333333,280.33258333333333
1823,2020-08-25,0.0,277.986125,277.986125
1823,2020-08-26,0.0,149.29020833333334,149.29020833333334
1823,2020-08-27,0.0,216.41037500000002,216.41037500000002
1823,2020-08-28,0.0,221.8875833333333,221.8875833333333
1823,2020-08-29,0.0,213.80279166666665,213.80279166666665
1823,2020-08-30,0.0,144.17020833333333,144.17020833333333
1823,2020-08-31,0.0,99.291625,99.291625
1823,2020-09-01,0.0,116.003375,116.003375
1823,2020-09-02,0.0,151.45491666666666,151.45491666666666
1823,2020-09-03,0.0,182.05491666666668,182.05491666666668
1823,2020-09-04,0.0,193.80483333333333,193.80483333333333
1823,2020-09-05,0.0,133.23808333333332,133.23808333333332
1823,2020-09-06,0.0,133.06179166666666,133.06179166666666
1823,2020-09-07,0.0,144.32995833333334,144.32995833333334
1823,2020-09-08,0.0,158.26670833333333,158.26670833333333
1823,2020-09-09,0.0,170.04095833333335,170.04095833333335
1823,2020-09-10,0.0,206.40625,206.40625
1823,2020-09-11,0.0,140.44929166666665,140.44929166666665
1823,2020-09-12,0.0,66.90474999999999,66.90474999999999
1823,2020-09-13,0.0,76.72295833333334,76.72295833333334
1823,2020-09-14,0.0,88.87016666666666,88.87016666666666
1823,2020-09-15,0.0,56.175666666666665,56.175666666666665
1823,2020-09-16,0.0,56.801375,56.801375
1823,2020-09-17,0.0,70.45275,70.45275
1823,2020-09-18,0.0,60.71666666666667,60.71666666666667
1823,2020-09-19,0.0,114.10904166666667,114.10904166666667
1823,2020-09-20,0.0,143.22708333333333,143.22708333333333
1823,2020-09-21,0.0,64.45825,64.45825
1823,2020-09-22,0.0,0.0,0.0
1823,2020-09-23,0.0,0.0,0.0
1823,2020-09-24,0.0,0.0,0.0
1823,2020-09-25,0.0,0.0,0.0
1823,2020-09-26,0.0,0.0,0.0
1823,2020-09-27,0.0,0.0,0.0
1823,2020-09-28,0.0,88.98604166666667,88.98604166666667
1823,2020-09-29,0.0,165.748625,165.748625
1823,2020-09-30,0.0,80.556875,80.556875
1823,2020-10-01,0.0,60.943041666666666,60.943041666666666
1823,2020-10-02,0.0,58.063208333333336,58.063208333333336
1823,2020-10-03,0.0,53.21670833333334,53.21670833333334
1823,2020-10-04,0.0,56.60691666666667,56.60691666666667
1823,2020-10-05,0.0,57.898666666666664,57.898666666666664
1823,2020-10-06,0.0,53.32895833333333,53.32895833333333
1823,2020-10-07,0.0,51.95558333333333,51.95558333333333
1823,2020-10-08,0.0,49.362541666666665,49.362541666666665
1823,2020-10-09,0.0,48.02645833333333,48.02645833333333
1823,2020-10-10,0.0,49.9785,49.9785
1823,2020-10-11,0.0,52.079125,52.079125
1823,2020-10-12,0.0,60.44520833333333,60.44520833333333
1823,2020-10-13,0.0,61.54720833333334,61.54720833333334
1823,2020-10-14,0.0,51.620916666666666,51.620916666666666
1823,2020-10-15,0.0,54.86595833333333,54.86595833333333
1823,2020-10-16,0.0,61.824333333333335,61.824333333333335
1823,2020-10-17,0.0,55.13399999999999,55.13399999999999
1823,2020-10-18,0.0,56.09504166666667,56.09504166666667
1823,2020-10-19,0.0,114.07429166666667,114.07429166666667
1823,2020-10-20,0.0,91.86520833333333,91.86520833333333
1823,2020-10-21,0.0,67.261125,67.261125
1823,2020-10-22,0.0,67.39383333333333,67.39383333333333
1823,2020-10-23,0.0,54.69091666666667,54.69091666666667
1823,2020-10-24,0.0,55.878375,55.878375
1823,2020-10-25,0.0,55.98054166666666,55.98054166666666
1823,2020-10-26,0.0,66.87141666666666,66.87141666666666
1823,2020-10-27,0.0,52.86837499999999,52.86837499999999
1823,2020-10-28,0.0,55.843041666666664,55.843041666666664
1823,2020-10-29,0.0,61.53404166666667,61.53404166666667
1823,2020-10-30,87.45308333333332,62.232708333333335,149.68579166666666
1823,2020-10-31,92.58641666666666,52.63475,145.22116666666665
1823,2020-11-01,81.36170833333333,58.16833333333333,139.53004166666665
1823,2020-11-02,85.86858333333333,60.654875000000004,146.52345833333334
1823,2020-11-03,87.23908333333334,62.60691666666667,149.846
1823,2020-11-04,84.86445833333332,63.37841666666667,148.242875
1823,2020-11-05,82.06991666666667,63.55983333333333,145.62975
1823,2020-11-06,80.7775,62.509625,143.287125
1823,2020-11-07,77.91841666666667,65.9515,143.86991666666665
1823,2020-11-08,78.58662500000001,71.695125,150.28175000000002
1823,2020-11-09,77.725375,73.539625,151.265
1823,2020-11-10,75.47154166666667,75.3215,150.79304166666668
1823,2020-11-11,74.82645833333333,79.17979166666667,154.00625000000002
1823,2020-11-12,71.81395833333333,82.220125,154.03408333333334
1823,2020-11-13,71.32541666666667,75.45141666666667,146.77683333333334
1823,2020-11-14,74.10754166666668,69.11879166666667,143.22633333333334
1823,2020-11-15,78.00870833333335,73.26870833333334,151.27741666666668
1823,2020-11-16,70.20704166666665,77.10004166666667,147.3070833333333
1823,2020-11-17,70.96604166666667,77.518,148.48404166666666
1823,2020-11-18,75.03979166666669,79.80766666666666,154.84745833333335
1823,2020-11-19,70.24066666666666,79.20075,149.44141666666667
1823,2020-11-20,69.84545833333331,74.34720833333334,144.19266666666664
1823,2020-11-21,71.40741666666666,68.75904166666668,140.16645833333334
1823,2020-11-22,67.74858333333333,81.76320833333334,149.51179166666668
1823,2020-11-23,69.6765,77.19933333333334,146.87583333333333
1823,2020-11-24,67.05445833333333,80.99025,148.04470833333335
1823,2020-11-25,67.25491666666666,80.42920833333334,147.684125
1823,2020-11-26,72.15566666666668,77.443875,149.59954166666668
1823,2020-11-27,67.96291666666669,74.77020833333333,142.73312500000003
1823,2020-11-28,66.17675000000001,80.59525000000001,146.77200000000002
1823,2020-11-29,69.23262500000001,78.64933333333333,147.88195833333333
1823,2020-11-30,33.133916666666664,122.41258333333333,155.54649999999998
1823,2020-12-01,57.81016666666667,96.8965,154.70666666666668
1823,2020-12-02,86.305625,72.91879166666666,159.22441666666668
1823,2020-12-03,86.46120833333333,67.49095833333332,153.95216666666664
1823,2020-12-04,81.66541666666664,71.425625,153.09104166666663
1823,2020-12-05,84.62716666666667,74.43329166666666,159.06045833333332
1823,2020-12-06,81.62404166666668,71.20287499999999,152.82691666666668
1823,2020-12-07,81.60416666666667,68.85483333333333,150.459
1823,2020-12-08,81.83416666666666,72.7,154.53416666666666
1823,2020-12-09,81.47458333333334,77.60283333333334,159.0774166666667
1823,2020-12-10,78.18508333333332,71.28475,149.46983333333333
1823,2020-12-11,75.54904166666664,70.691,146.24004166666663
1823,2020-12-12,74.08670833333333,75.51537499999999,149.60208333333333
1823,2020-12-13,77.09279166666668,66.64854166666667,143.74133333333336
1823,2020-12-14,74.02595833333334,86.54995833333334,160.57591666666667
1823,2020-12-15,76.64029166666667,76.28045833333333,152.92075
1823,2020-12-16,77.185625,86.36108333333334,163.54670833333336
1823,2020-12-17,78.82229166666669,85.654875,164.47716666666668
1823,2020-12-18,72.59166666666665,85.57366666666667,158.1653333333333
1823,2020-12-19,76.85045833333332,82.42920833333334,159.27966666666666
1823,2020-12-20,76.07945833333335,85.41170833333332,161.4911666666667
1823,2020-12-21,73.38662500000001,86.154875,159.5415
1823,2020-12-22,71.886,82.84366666666666,154.72966666666667
1823,2020-12-23,73.34604166666666,80.45141666666667,153.79745833333334
1823,2020-12-24,79.49579166666668,70.22716666666666,149.72295833333334
1823,2020-12-25,74.290375,84.619375,158.90975
1823,2020-12-26,80.51337499999998,78.64929166666667,159.16266666666667
1823,2020-12-27,53.20945833333334,103.07641666666666,156.285875
1823,2020-12-28,59.30441666666666,90.493125,149.79754166666666
1823,2020-12-29,96.51837499999999,54.66454166666667,151.18291666666667
1823,2020-12-30,99.20154166666667,54.544375,153.7459166666667
1823,2020-12-31,95.91870833333336,61.795208333333335,157.7139166666667
1823,2021-01-01,29.791833333333333,14.944833333333333,44.736666666666665
1823,2021-01-02,0.0,0.0,0.0
1823,2021-01-03,0.0,0.0,0.0
1823,2021-01-04,26.307499999999994,19.956958333333333,46.26445833333332
1823,2021-01-05,72.93929166666665,39.88820833333333,112.82749999999999
1823,2021-01-06,50.54091666666667,33.09858333333333,83.6395
1823,2021-01-07,92.52783333333333,53.977875000000004,146.50570833333333
1823,2021-01-08,94.41320833333333,55.62633333333333,150.03954166666665
1823,2021-01-09,94.30629166666665,56.199375,150.50566666666666
1823,2021-01-10,91.28095833333333,59.01591666666667,150.296875
1823,2021-01-11,91.549875,57.90420833333334,149.45408333333333
1823,2021-01-12,90.26854166666665,54.93270833333333,145.20125
1823,2021-01-13,88.9425,58.48404166666666,147.42654166666665
1823,2021-01-14,87.39412500000002,56.456916666666665,143.85104166666667
1823,2021-01-15,86.440375,61.2945,147.734875
1823,2021-01-16,86.61579166666667,60.385416666666664,147.00120833333332
1823,2021-01-17,87.55308333333333,60.99304166666667,148.54612500000002
1823,2021-01-18,84.45725,61.29441666666667,145.75166666666667
1823,2021-01-19,85.24004166666667,60.80133333333333,146.04137500000002
1823,2021-01-20,85.01383333333335,64.59308333333333,149.60691666666668
1823,2021-01-21,86.73700000000001,62.57079166666667,149.30779166666667
1823,2021-01-22,89.46570833333334,53.53954166666667,143.00525000000002
1823,2021-01-23,91.30583333333334,56.41041666666666,147.71625
1823,2021-01-24,91.837125,64.6535,156.490625
1823,2021-01-25,90.26270833333332,59.50279166666667,149.76549999999997
1823,2021-01-26,90.11470833333334,61.79458333333333,151.90929166666666
1823,2021-01-27,90.55383333333333,58.98466666666667,149.5385
1823,2021-01-28,89.72908333333332,57.407000000000004,147.13608333333332
1823,2021-01-29,92.42891666666668,62.55833333333334,154.98725000000002
1823,2021-01-30,91.46783333333332,60.340291666666666,151.808125
1823,2021-01-31,90.169875,68.18808333333332,158.35795833333333
1823,2021-02-01,91.17541666666666,71.40275,162.57816666666668
1823,2021-02-02,87.80537500000001,68.75970833333334,156.56508333333335
1823,2021-02-03,22.697750000000003,11.702083333333334,34.39983333333333
1823,2021-02-04,0.0,0.0,0.0
1823,2021-02-05,0.0,0.0,0.0
1823,2021-02-06,0.0,0.0,0.0
1823,2021-02-07,0.0,0.0,0.0
1823,2021-02-08,0.0,0.0,0.0
1823,2021-02-09,0.0,0.0,0.0
1823,2021-02-10,0.0,0.0,0.0
1823,2021-02-11,0.0,0.0,0.0
1823,2021-02-12,0.0,0.0,0.0
1823,2021-02-13,0.0,0.0,0.0
1823,2021-02-14,0.0,0.0,0.0
1823,2021-02-15,0.0,0.0,0.0
1823,2021-02-16,0.0,0.0,0.0
1823,2021-02-17,0.0,0.0,0.0
1823,2021-02-18,0.0,0.0,0.0
1823,2021-02-19,46.64154166666666,40.248375,86.88991666666666
1823,2021-02-20,93.23216666666667,49.56941666666666,142.80158333333333
1823,2021-02-21,94.69666666666667,54.378458333333334,149.075125
1823,2021-02-22,91.99033333333331,55.409708333333334,147.40004166666665
1823,2021-02-23,90.93979166666668,52.12433333333333,143.06412500000002
1823,2021-02-24,87.20333333333333,48.816583333333334,136.01991666666666
1823,2021-02-25,31.3265,103.59929166666666,134.92579166666667
1823,2021-02-26,4.794958333333333,131.53062500000001,136.32558333333336
1823,2021-02-27,0.0,142.07570833333332,142.07570833333332
1823,2021-02-28,0.0,145.88683333333333,145.88683333333333
1823,2021-03-01,0.0,141.45691666666667,141.45691666666667
1823,2021-03-02,0.0,149.0215,149.0215
1823,2021-03-03,0.0,139.384,139.384
1823,2021-03-04,0.0,141.09033333333335,141.09033333333335
1823,2021-03-05,47.08025,96.522625,143.602875
1823,2021-03-06,95.84008333333334,50.22145833333334,146.06154166666667
1823,2021-03-07,92.01966666666665,51.04029166666667,143.05995833333333
1823,2021-03-08,91.744375,46.3785,138.12287500000002
1823,2021-03-09,3.955083333333333,45.295125000000006,49.25020833333334
1823,2021-03-10,0.0,45.51733333333333,45.51733333333333
1823,2021-03-11,0.0,45.44645833333333,45.44645833333333
1823,2021-03-12,0.0,43.404875000000004,43.404875000000004